Overview Statistics Trail Chart Weather Telemetry Raw packets
 

This is the latest recevied weather packets stored in our database for station/object KH6DH-13. If no packets are shown the sender has not sent any weather packets the latest 10 day(s).

<< 38 39 40 41 42 43 44 >>
Time Temp. Humidity Pressure Rain* Wind** Luminosity Snow
1788093664 25° C - - 0 mm 2.24 m/s, 35° - -
1788093060 25° C - - 0 mm 1.79 m/s, 13° - -
1788092457 25.56° C - - 0 mm 2.68 m/s, 24° - -
1788091854 25.56° C - - 0 mm 1.79 m/s, 63° - -
1788091253 25.56° C - - 0 mm 1.34 m/s, 75° - -
1788090656 25.56° C - - 0 mm 1.34 m/s, 49° - -
1788090048 25.56° C - - 0 mm 1.34 m/s, 28° - -
1788089447 25° C - - 0 mm 0 m/s - -
1788088846 25.56° C - - 0 mm 0.89 m/s, 91° - -
1788088245 25.56° C - - 0 mm 0.89 m/s, 269° - -
1788087644 25.56° C - - 0 mm 1.79 m/s, 49° - -
1788087043 25.56° C - - 0 mm 0.89 m/s, 352° - -
1788086442 25.56° C - - 0 mm 2.68 m/s, 60° - -
1788085841 25.56° C - - 0 mm 1.79 m/s, 46° - -
1788085240 25.56° C - - 0 mm 1.79 m/s, 214° - -
1788084639 26.11° C - - 0 mm 0.89 m/s, 13° - -
1788084038 26.11° C - - 0 mm 2.24 m/s, 73° - -
1788083437 25.56° C - - 0 mm 2.24 m/s, 105° - -
1788082836 25.56° C - - 0 mm 1.34 m/s, 179° - -
1788082235 25.56° C - - 0 mm 3.13 m/s, 49° - -
1788081634 25.56° C - - 0 mm 3.13 m/s, 83° - -
1788081033 26.11° C - - 0 mm 3.13 m/s, 115° - -
1788080432 25.56° C - - 0 mm 1.34 m/s, 143° - -
1788079831 25.56° C - - 0 mm 1.79 m/s, 359° - -
1788079230 25.56° C - - 0 mm 0.89 m/s, 166° - -

* Rain latest hour (hover to see other rain measurements)
** Current wind speed in m/s (hover to see current wind gust speed)